This is the latest recevied weather packets stored in our database for station/object KF6RAL-6. If no packets are shown the sender has not sent any weather packets the latest 1 day(s).
| Time | Temp. | Humidity | Pressure | Rain* | Wind** | Luminosity | Snow |
|---|---|---|---|---|---|---|---|
| 1778045559 | 11.67° C | 69% | 1009.1 hPa | 0 mm | - | - | - |
| 1778044717 | 13.33° C | 64% | 1009 hPa | 0 mm | - | - | - |
| 1778044296 | 13.89° C | 61% | 1008.8 hPa | 0 mm | - | - | - |
| 1778043875 | 13.89° C | 62% | 1008.6 hPa | 0 mm | - | - | - |
| 1778043454 | 14.44° C | 56% | 1008.4 hPa | 0 mm | - | - | - |
| 1778043033 | 14.44° C | 57% | 1008.1 hPa | 0 mm | - | - | - |
| 1778042612 | 14.44° C | 59% | 1007.9 hPa | 0 mm | - | - | - |
| 1778042191 | 14.44° C | 61% | 1007.8 hPa | 0 mm | - | - | - |
| 1778041770 | 15° C | 59% | 1008.2 hPa | 0 mm | - | - | - |
| 1778041349 | 15° C | 57% | 1008.2 hPa | 0 mm | - | - | - |
| 1778040928 | 15.56° C | 56% | 1008.1 hPa | 0 mm | - | - | - |
| 1778040507 | 15° C | 56% | 1007.4 hPa | 0 mm | - | - | - |
| 1778040086 | 14.44° C | 59% | 1007.8 hPa | 0 mm | - | - | - |
| 1778039666 | 14.44° C | 58% | 1007.4 hPa | 0 mm | - | - | - |
| 1778039244 | 14.44° C | 57% | 1007.3 hPa | 0 mm | - | - | - |
| 1778038823 | 14.44° C | 57% | 1007.2 hPa | 0 mm | - | - | - |
| 1778038402 | 15° C | 56% | 1007.3 hPa | 0 mm | - | - | - |
| 1778037981 | 15° C | 56% | 1007.2 hPa | 0 mm | - | - | - |
| 1778037560 | 15° C | 54% | 1007.2 hPa | 0 mm | - | - | - |
| 1778037139 | 15.56° C | 53% | 1007.6 hPa | 0 mm | - | - | - |
| 1778036720 | 15° C | 52% | 1006.9 hPa | 0 mm | - | - | - |
| 1778036297 | 15.56° C | 52% | 1007.4 hPa | 0 mm | - | - | - |
| 1778035876 | 15.56° C | 49% | 1007.2 hPa | 0 mm | - | - | - |
| 1778035455 | 16.11° C | 50% | 1007.1 hPa | 0 mm | - | - | - |
| 1778035034 | 16.11° C | 49% | 1007.1 hPa | 0 mm | - | - | - |
* Rain latest hour (hover to see other rain measurements)
** Current wind speed in m/s (hover to see current wind gust speed)